RH
42 43 46 50 53 55 57 56 56 53 49 49 50 50 50 51 53 53 53 53 54 56 58 59 61 62 62 63 63 64 64 64 63 61 60 59 59 59 58 58 56 56
43 45 51 54 54 54 53 52 50 48 49 50 50 50 51 52 53 52 52 54 57 59 61 62 63 65 66 66 66 67 67 67 66 65 64 62 61 60 59 59 57 56
43 45 48 49 48 48 48 47 48 49 50 50 50 51 52 52 52 53 55 58 61 62 62 64 67 69 70 71 70 70 69 70 68 67 66 65 63 62 60 60 59 58
44 45 45 46 46 47 47 48 49 50 50 51 51 51 52 53 54 56 59 61 61 63 65 68 71 73 75 76 75 74 72 72 71 69 68 67 65 64 62 61 60 60
44 45 45 46 47 47 48 49 50 50 51 52 52 53 54 55 57 59 60 60 62 65 69 72 75 77 80 80 79 78 76 76 75 73 71 69 67 66 64 63 62 61
44 45 46 48 48 49 49 50 51 52 54 54 55 55 54 55 58 59 59 62 66 69 73 75 79 82 84 84 82 81 80 80 79 78 76 73 70 68 66 64 63 62
45 46 47 49 50 50 51 51 52 54 55 56 55 53 54 56 58 58 61 65 69 73 76 79 82 86 88 87 85 84 84 83 83 83 81 79 76 73 69 66 64 62
46 47 48 50 50 51 52 52 54 55 55 54 53 53 56 57 58 60 64 69 73 76 80 82 86 90 91 90 89 88 88 87 87 88 87 85 83 80 77 73 70 67
46 47 48 50 51 52 53 54 55 56 56 55 54 55 57 58 60 65 69 73 76 80 83 87 90 93 94 94 94 94 94 92 92 93 93 91 89 87 85 82 79 75
46 48 49 51 53 54 55 56 57 57 56 56 56 57 58 60 64 69 72 76 80 84 89 91 94 97 98 98 97 96 96 95 95 96 96 95 94 93 92 89 87 83
47 49 51 53 54 56 57 57 57 57 57 56 57 58 60 65 69 73 77 80 84 90 95 97 99 100 99 99 98 97 97 96 96 98 98 98 97 97 96 95 94 91
48 50 52 54 56 57 58 58 58 57 57 58 59 62 66 70 74 77 80 84 91 97 100 100 101 100 100 100 100 99 99 99 99 99 100 100 100 98 98 98 97 96
49 51 54 56 58 58 58 59 59 58 59 60 62 67 72 75 77 80 84 91 98 101 101 101 100 100 100 100 100 100 100 100 100 101 100 100 100 98 97 98 97 97
51 53 55 57 58 59 60 60 60 61 62 63 67 72 75 76 80 85 90 98 102 101 100 101 100 101 100 100 101 100 100 101 100 100 100 100 100 98 97 98 98 97
53 55 57 58 59 61 62 62 62 63 65 68 73 75 77 80 85 91 95 100 103 101 100 101 100 101 101 100 101 101 101 101 100 100 100 100 100 99 98 100 100 100
55 58 58 59 62 64 64 64 64 67 71 75 77 78 82 87 90 94 97 100 103 103 101 101 100 100 101 101 100 101 101 100 100 100 100 100 100 100 99 100 101 101
57 59 60 61 63 65 65 66 67 72 76 78 80 83 87 90 91 95 99 101 103 102 101 101 100 98 101 102 100 100 100 100 100 100 100 100 100 100 100 100 100 100
59 62 63 64 65 65 67 69 72 76 79 81 84 87 89 91 93 97 101 101 102 101 101 101 97 96 101 102 100 100 100 100 100 100 100 100 100 100 100 100 100 100
60 63 66 66 67 67 70 74 77 79 81 84 86 88 90 95 98 100 101 101 101 101 101 100 95 93 98 101 100 100 100 100 100 100 100 100 100 100 100 100 100 100
61 64 66 67 69 71 74 78 80 81 83 86 88 91 96 102 102 102 101 100 100 100 101 101 94 88 92 99 101 100 100 100 100 100 100 100 100 100 100 100 100 100
63 65 67 69 72 74 78 80 81 84 87 89 93 97 102 105 103 101 101 99 100 101 101 100 92 85 91 100 101 100 100 100 100 100 100 100 100 100 101 100 100 100
63 66 68 72 74 77 81 83 85 88 90 92 98 102 104 104 102 101 101 100 99 101 102 98 88 83 90 99 100 100 100 100 100 100 100 100 100 98 97 100 101 100
63 67 71 74 77 80 84 86 88 91 93 97 103 104 102 101 101 100 100 100 99 99 99 96 87 81 88 97 100 101 100 99 101 100 97 99 101 93 86 93 101 101
63 67 72 77 80 82 85 90 92 94 98 102 104 104 102 100 100 100 99 99 99 96 96 98 92 84 88 97 101 100 100 100 101 99 94 94 99 95 83 82 91 99
63 68 73 78 81 84 88 92 94 97 101 103 103 103 102 100 100 101 101 99 98 94 94 99 97 88 87 95 100 100 100 100 99 100 97 95 98 100 93 85 83 84
66 70 75 79 84 87 90 92 97 100 102 103 103 102 101 101 101 102 101 98 95 94 92 93 95 91 88 93 99 100 98 97 99 101 100 99 99 100 100 97 89 81
Wind_Speed
15 14 14 13 13 13 13 14 14 16 17 17 16 16 16 16 15 15 15 16 17 17 17 17 18 18 18 18 18 18 18 18 18 18 18 19 19 19 19 19 19 19
16 15 14 13 14 14 14 15 15 17 18 17 17 17 17 16 15 15 16 17 17 17 17 18 19 19 19 20 20 20 20 19 19 18 18 19 20 20 21 20 20 20
16 15 15 15 15 15 15 16 16 17 17 17 17 17 17 16 16 16 16 15 16 17 18 19 20 20 20 21 21 21 21 21 21 20 20 20 21 21 21 21 21 21
16 16 16 16 16 16 16 16 16 16 16 17 17 17 17 17 16 16 16 16 18 19 20 20 20 21 21 21 21 21 22 22 22 21 21 21 21 21 22 22 22 22
18 17 17 16 16 16 16 17 17 16 17 18 17 17 16 16 16 16 17 18 19 19 20 20 20 21 20 20 20 20 21 21 21 21 21 22 22 21 22 22 23 23
18 17 17 16 16 16 17 18 18 17 17 17 17 17 17 17 18 18 19 19 19 19 20 21 21 20 19 18 17 18 19 19 20 20 21 22 22 21 22 22 23 24
18 18 17 17 17 17 18 19 19 18 18 18 18 18 18 18 19 19 20 20 20 20 20 20 20 19 17 16 16 17 18 18 19 20 21 22 22 22 22 22 23 24
19 18 18 17 18 18 19 20 20 20 20 19 19 18 18 19 20 20 20 20 21 21 21 20 19 18 16 15 16 17 18 18 19 20 21 23 22 23 23 22 23 24
20 19 19 19 19 20 20 20 20 20 19 19 18 18 18 19 20 20 20 21 22 22 22 21 20 19 17 17 17 18 18 19 20 20 22 23 24 24 24 24 24 25
22 21 20 20 20 21 21 20 20 20 19 19 19 19 20 20 20 20 21 22 23 23 22 22 20 19 18 18 18 18 19 19 20 21 23 24 25 26 25 24 25 26
23 22 21 21 21 22 21 20 19 19 19 19 19 19 20 20 20 20 21 22 23 22 22 21 19 19 18 18 18 18 19 19 20 21 22 23 25 26 26 25 26 27
23 23 22 22 22 22 21 20 19 19 18 18 19 19 19 19 20 20 21 22 22 21 19 19 19 19 19 19 19 19 19 20 21 22 23 24 25 26 26 27 27 28
24 23 23 22 21 21 20 20 19 19 18 19 19 19 19 20 21 21 22 21 20 19 19 19 19 19 19 19 19 19 20 21 22 22 23 25 26 27 27 28 29 30
24 23 23 21 21 20 20 19 19 19 19 19 19 19 20 21 21 22 22 20 18 18 19 19 19 20 20 20 20 21 22 22 21 22 23 25 26 28 28 28 30 31
24 23 22 21 20 20 19 19 18 19 19 19 19 20 20 21 21 21 22 21 20 19 19 19 19 21 21 20 21 22 22 23 23 23 24 26 28 29 29 29 30 31
23 22 22 21 20 19 19 19 18 18 19 19 19 20 20 20 21 22 22 23 22 21 20 20 21 23 23 21 22 23 23 24 25 26 27 29 31 33 34 33 32 32
22 21 21 21 20 19 19 19 18 18 19 19 19 20 20 20 21 22 22 23 23 23 22 23 25 26 25 24 24 24 24 24 26 28 30 32 34 35 37 37 34 32
20 19 20 20 20 19 19 18 18 19 19 19 20 20 21 21 21 21 22 22 22 24 24 25 26 26 24 24 24 24 24 24 25 27 28 31 34 35 36 37 34 32
20 19 19 20 19 19 19 19 19 19 20 20 21 21 21 20 20 20 22 22 22 24 24 25 24 24 22 23 24 25 24 23 25 26 27 29 32 34 35 35 34 33
21 20 20 20 20 19 19 19 19 20 21 21 21 21 20 19 20 21 22 22 22 22 23 23 23 22 21 22 23 24 23 23 24 26 28 30 33 35 35 35 34 33
21 21 21 20 20 19 19 20 21 21 21 21 20 19 19 20 20 21 21 21 20 20 22 24 23 21 20 21 23 23 22 22 23 26 29 31 32 31 30 32 33 31
21 21 21 21 20 19 20 20 21 21 21 20 19 19 19 19 18 18 18 19 19 20 22 24 23 20 19 19 21 21 20 21 24 26 25 25 22 18 17 21 27 29
22 21 21 20 20 20 20 21 21 21 20 19 18 18 17 15 16 16 17 19 20 21 22 24 23 19 16 17 18 19 20 21 23 20 17 16 15 14 14 14 17 24
22 21 21 21 21 21 21 21 20 20 19 18 18 18 17 16 17 18 19 20 21 21 20 21 22 18 15 15 17 18 18 19 18 14 12 14 14 13 14 14 13 15
22 21 21 21 21 21 21 20 20 19 18 19 19 19 18 18 17 18 20 20 20 20 19 19 21 20 16 13 14 15 16 16 14 12 12 14 14 13 12 13 14 14
21 21 21 21 21 21 20 20 19 18 18 18 18 17 17 17 17 18 20 21 20 19 19 18 19 19 14 11 12 14 14 14 13 12 12 14 16 14 13 13 15 16
Wind_Direction
264 267 265 263 263 266 269 271 273 278 284 287 288 289 292 295 298 301 303 305 305 304 304 304 303 302 299 296 293 289 285 281 277 275 273 271 269 267 265 263 263 263
262 260 256 256 259 262 263 265 271 278 282 284 285 288 291 293 294 297 300 302 303 301 301 301 300 299 296 293 290 286 283 279 275 272 270 268 267 266 265 263 261 260
258 255 252 255 259 261 263 268 272 275 277 279 283 286 288 288 290 294 296 296 296 296 297 298 298 297 294 291 288 284 280 276 274 272 269 266 265 264 264 263 261 259
250 251 253 255 258 261 264 269 270 270 272 276 280 282 283 285 288 289 290 290 291 293 295 295 295 294 292 290 286 282 278 275 273 271 269 266 264 262 262 262 261 259
248 249 252 254 257 260 263 265 266 268 271 275 277 279 280 282 283 283 286 288 290 291 292 292 293 291 289 286 283 279 276 273 272 270 267 265 264 261 260 259 259 258
246 247 248 250 254 257 259 261 264 267 271 273 274 275 277 278 279 282 285 287 287 287 289 290 290 289 285 281 276 273 272 271 270 268 265 264 263 261 259 257 257 257
242 245 246 249 252 255 257 260 264 266 269 271 273 275 276 276 278 283 284 284 285 286 287 288 287 284 279 274 270 268 268 268 268 266 264 264 263 261 259 256 255 255
243 245 246 249 252 255 257 260 264 266 269 272 273 274 275 276 279 283 283 283 284 285 285 284 282 277 272 269 267 266 265 265 265 264 264 264 263 261 259 257 256 255
244 244 246 251 253 254 257 260 264 266 268 270 271 272 273 276 279 280 281 283 284 284 283 280 276 272 268 265 263 263 264 264 263 263 264 264 263 262 261 259 257 256
245 246 249 251 252 254 257 261 263 265 266 267 268 270 273 276 277 278 280 282 283 282 281 278 273 269 265 262 260 261 262 263 264 264 265 265 264 263 263 260 258 256
246 248 249 251 253 256 258 260 261 262 263 264 266 269 273 275 275 277 280 281 281 280 278 274 270 267 264 261 259 259 260 262 264 265 264 264 264 264 263 261 259 258
247 249 251 253 254 256 257 258 260 262 261 262 265 270 272 272 275 278 280 280 279 277 273 270 268 265 263 262 261 259 259 260 262 263 264 264 264 264 264 262 260 259
247 250 253 255 254 254 256 259 260 260 260 262 266 268 268 272 276 279 279 278 276 272 268 268 267 265 263 262 260 259 259 261 262 262 263 264 264 265 264 262 260 258
247 251 255 256 254 255 257 258 258 258 260 263 264 264 269 274 278 278 278 275 271 268 267 267 265 264 263 261 260 260 259 260 260 260 262 264 266 267 266 263 262 259
248 252 256 256 254 254 255 254 256 259 261 262 262 266 273 276 277 277 276 274 270 267 266 265 263 261 260 259 260 261 261 262 263 264 265 267 269 272 271 266 263 261
249 252 254 254 252 251 252 253 257 259 260 261 265 272 275 277 278 278 276 273 271 268 265 263 262 262 261 259 259 260 262 265 269 271 272 271 271 272 273 271 266 263
247 250 253 253 252 250 251 256 258 258 259 263 269 274 275 278 280 278 276 273 272 270 268 266 267 268 267 264 261 259 259 261 265 269 271 272 270 268 270 272 269 264
243 245 249 250 250 251 253 257 257 257 261 266 270 274 278 280 280 277 276 274 272 272 271 270 271 271 269 266 264 262 260 259 260 263 266 268 268 265 265 267 266 263
242 243 245 247 249 253 257 256 256 259 263 268 272 277 280 280 277 276 275 273 272 272 272 273 273 273 271 268 267 266 265 263 263 263 263 264 265 263 261 261 261 259
243 243 244 247 252 255 256 255 257 262 267 271 276 278 278 276 274 275 274 273 273 273 274 276 275 275 276 273 270 270 268 267 268 268 268 267 266 265 262 258 256 254
241 242 244 248 253 253 255 257 260 264 268 273 276 275 274 274 274 274 274 274 274 274 275 277 277 277 279 276 273 272 272 273 274 274 274 273 272 273 269 260 254 250
239 241 244 248 251 252 255 258 260 265 270 274 275 273 273 273 271 270 270 271 273 274 276 278 278 277 278 277 275 275 276 278 280 279 280 281 284 297 299 273 255 248
238 241 245 247 248 250 253 256 260 266 271 272 272 271 269 265 262 264 267 271 275 276 277 279 280 279 278 279 278 278 280 283 283 285 293 300 306 322 331 310 267 249
239 241 243 244 246 249 252 256 261 267 268 268 269 269 265 262 265 270 274 276 277 277 277 279 281 282 282 282 280 280 284 289 292 297 307 314 317 318 321 323 305 270
239 240 240 241 245 249 252 257 263 265 267 270 271 269 266 268 272 274 277 278 278 278 278 276 278 283 285 282 281 284 290 295 302 309 311 313 315 310 304 309 309 294
238 235 236 240 245 250 256 261 263 265 269 271 269 265 265 269 272 273 277 279 279 280 280 277 279 284 286 283 281 285 294 302 306 310 312 310 308 305 302 304 303 295